START_TIME,STEP,MOV.,M35,t_acc.,PL05,t_acc.,PL06,t_acc.,PL07,t_acc.
1979-03-10 18:00:21.430 ,7,0,0.,4.8,2.,4.8,1.,4.8,0.,4.8
1979-03-10 18:00:26.230 ,7,0,0.,4.8,1.,4.8,1.,4.8,0.,4.8
1979-03-10 18:00:31.030 ,7,0,0.,4.8,1.,4.8,0.,4.8,0.,4.8
1979-03-10 18:00:35.830 ,7,0,0.,4.8,0.,4.8,1.,4.8,0.,4.8
1979-03-10 18:00:40.630 ,7,0,0.,4.8,0.,4.8,0.,4.8,0.,4.8
1979-03-10 18:00:45.430 ,6,0,0.,4.8,0.,4.8,0.,4.8,0.,4.8
1979-03-10 18:00:50.230 ,6,0,0.,4.8,1.,4.8,1.,4.8,1.,4.8
1979-03-10 18:00:55.030 ,6,0,0.,4.8,2.,4.8,0.,4.8,1.,4.8
1979-03-10 18:00:59.830 ,6,0,0.,4.8,0.,4.8,1.,4.8,0.,4.8
1979-03-10 18:01:04.630 ,6,0,0.,4.8,2.,4.8,0.,4.8,0.,4.8
1979-03-10 18:01:09.430 ,5,0,0.,4.8,0.,4.8,0.,4.8,0.,4.8
1979-03-10 18:01:14.230 ,5,0,0.,4.8,0.,4.8,0.,4.8,2.,4.8
1979-03-10 18:01:19.030 ,5,0,0.,4.8,1.,4.8,0.,4.8,0.,4.8
1979-03-10 18:01:23.830 ,5,0,0.,4.8,1.,4.8,0.,4.8,0.,4.8
1979-03-10 18:01:28.630 ,5,0,0.,4.8,0.,4.8,1.,4.8,0.,4.8
1979-03-10 18:01:33.430 ,4,0,0.,4.8,1.,4.8,2.,4.8,0.,4.8
1979-03-10 18:01:38.230 ,4,0,0.,4.8,0.,4.8,0.,4.8,0.,4.8
1979-03-10 18:01:43.030 ,4,0,0.,4.8,1.,4.8,0.,4.8,0.,4.8
1979-03-10 18:01:47.830 ,4,0,0.,4.8,0.,4.8,1.,4.8,0.,4.8
1979-03-10 18:01:52.630 ,4,0,0.,4.8,3.,4.8,0.,4.8,0.,4.8
1979-03-10 18:01:57.430 ,3,0,0.,4.8,1.,4.8,0.,4.8,0.,4.8
1979-03-10 18:02:02.230 ,3,0,0.,4.8,0.,4.8,0.,4.8,0.,4.8
1979-03-10 18:02:07.030 ,3,0,0.,4.8,0.,4.8,1.,4.8,0.,4.8
1979-03-10 18:02:11.830 ,3,0,0.,4.8,2.,4.8,0.,4.8,0.,4.8
1979-03-10 18:02:16.630 ,3,0,0.,4.8,0.,4.8,0.,4.8,0.,4.8
1979-03-10 18:02:21.430 ,2,0,0.,4.8,1.,4.8,0.,4.8,0.,4.8
1979-03-10 18:02:26.230 ,2,0,0.,4.8,0.,4.8,0.,4.8,0.,4.8
1979-03-10 18:02:31.030 ,2,0,0.,4.8,0.,4.8,0.,4.8,0.,4.8
1979-03-10 18:02:35.830 ,2,0,0.,4.8,3.,4.8,0.,4.8,0.,4.8
1979-03-10 18:02:40.630 ,2,0,0.,4.8,1.,4.8,1.,4.8,0.,4.8
1979-03-10 18:02:45.430 ,1,0,0.,4.8,1.,4.8,0.,4.8,0.,4.8
1979-03-10 18:02:50.230 ,1,0,0.,4.8,2.,4.8,0.,4.8,1.,4.8
1979-03-10 18:02:55.030 ,1,0,0.,4.8,1.,4.8,0.,4.8,0.,4.8
1979-03-10 18:02:59.830 ,1,0,0.,4.8,0.,4.8,0.,4.8,0.,4.8
1979-03-10 18:03:04.630 ,1,0,0.,4.8,1.,4.8,1.,4.8,0.,4.8
1979-03-10 18:03:09.430 ,0,0,0.,4.8,0.,4.8,0.,4.8,0.,4.8
1979-03-10 18:03:14.230 ,0,0,0.,4.8,1.,4.8,0.,4.8,0.,4.8
1979-03-10 18:03:19.030 ,0,0,0.,4.8,2.,4.8,1.,4.8,0.,4.8
1979-03-10 18:03:23.830 ,0,0,0.,4.8,1.,4.8,0.,4.8,0.,4.8
1979-03-10 18:03:28.630 ,0,0,0.,4.8,1.,4.8,0.,4.8,0.,4.8
1979-03-10 18:03:33.430 ,0,0,0.,4.8,0.,4.8,1.,4.8,0.,4.8
1979-03-10 18:03:38.230 ,0,0,0.,4.8,0.,4.8,1.,4.8,1.,4.8
1979-03-10 18:03:43.030 ,0,0,0.,4.8,0.,4.8,0.,4.8,0.,4.8
1979-03-10 18:03:47.830 ,0,0,0.,4.8,1.,4.8,1.,4.8,0.,4.8
1979-03-10 18:03:52.630 ,0,0,0.,4.8,0.,4.8,0.,4.8,0.,4.8
1979-03-10 18:03:57.430 ,1,0,0.,4.8,0.,4.8,0.,4.8,0.,4.8
1979-03-10 18:04:02.230 ,1,0,0.,4.8,1.,4.8,0.,4.8,1.,4.8
1979-03-10 18:04:07.030 ,1,0,0.,4.8,5.,4.8,0.,4.8,0.,4.8
1979-03-10 18:04:11.830 ,1,0,0.,4.8,2.,4.8,0.,4.8,0.,4.8
1979-03-10 18:04:16.630 ,1,0,0.,4.8,1.,4.8,0.,4.8,1.,4.8
1979-03-10 18:04:21.430 ,2,0,0.,4.8,1.,4.8,0.,4.8,0.,4.8
1979-03-10 18:04:26.230 ,2,0,0.,4.8,0.,4.8,0.,4.8,1.,4.8
1979-03-10 18:04:31.030 ,2,0,0.,4.8,3.,4.8,0.,4.8,0.,4.8
1979-03-10 18:04:35.830 ,2,0,0.,4.8,1.,4.8,0.,4.8,0.,4.8
1979-03-10 18:04:40.630 ,2,0,0.,4.8,1.,4.8,0.,4.8,1.,4.8
1979-03-10 18:04:45.430 ,3,0,0.,4.8,2.,4.8,0.,4.8,0.,4.8
1979-03-10 18:04:50.230 ,3,0,0.,4.8,3.,4.8,0.,4.8,0.,4.8
1979-03-10 18:04:55.030 ,3,0,0.,4.8,0.,4.8,2.,4.8,0.,4.8
1979-03-10 18:04:59.830 ,3,0,0.,4.8,0.,4.8,0.,4.8,0.,4.8
1979-03-10 18:05:04.630 ,3,0,0.,4.8,2.,4.8,0.,4.8,0.,4.8
1979-03-10 18:05:09.430 ,4,0,0.,4.8,0.,4.8,0.,4.8,0.,4.8
1979-03-10 18:05:14.230 ,4,0,0.,4.8,1.,4.8,0.,4.8,0.,4.8
1979-03-10 18:05:19.030 ,4,0,0.,4.8,0.,4.8,0.,4.8,0.,4.8
1979-03-10 18:05:23.830 ,4,0,0.,4.8,1.,4.8,0.,4.8,0.,4.8
1979-03-10 18:05:28.630 ,4,0,0.,4.8,1.,4.8,0.,4.8,0.,4.8
1979-03-10 18:05:33.430 ,5,0,0.,4.8,0.,4.8,0.,4.8,0.,4.8
1979-03-10 18:05:38.230 ,5,0,0.,4.8,0.,4.8,0.,4.8,0.,4.8
1979-03-10 18:05:43.030 ,5,0,0.,4.8,1.,4.8,0.,4.8,0.,4.8
1979-03-10 18:05:47.830 ,5,0,0.,4.8,2.,4.8,0.,4.8,0.,4.8
1979-03-10 18:05:52.630 ,5,0,0.,4.8,1.,4.8,0.,4.8,0.,4.8
1979-03-10 18:05:57.430 ,6,0,0.,4.8,1.,4.8,1.,4.8,0.,4.8
1979-03-10 18:06:02.230 ,6,0,0.,4.8,1.,4.8,1.,4.8,0.,4.8
1979-03-10 18:06:07.030 ,6,0,0.,4.8,2.,4.8,0.,4.8,0.,4.8
1979-03-10 18:06:11.830 ,6,0,0.,4.8,0.,4.8,1.,4.8,0.,4.8
1979-03-10 18:06:16.630 ,6,0,0.,4.8,1.,4.8,0.,4.8,0.,4.8
1979-03-10 18:06:21.430 ,7,0,0.,4.8,2.,4.8,0.,4.8,0.,4.8
1979-03-10 18:06:26.230 ,7,0,0.,4.8,2.,4.8,1.,4.8,0.,4.8
1979-03-10 18:06:31.030 ,7,0,0.,4.8,1.,4.8,0.,4.8,0.,4.8
1979-03-10 18:06:35.830 ,7,0,0.,4.8,0.,4.8,2.,4.8,0.,4.8
1979-03-10 18:06:40.630 ,7,0,0.,4.8,2.,4.8,0.,4.8,0.,4.8
1979-03-10 18:06:45.430 ,7,0,0.,4.8,3.,4.8,0.,4.8,1.,4.8
1979-03-10 18:06:50.230 ,7,0,0.,4.8,0.,4.8,1.,4.8,2.,4.8
1979-03-10 18:06:55.030 ,7,0,0.,4.8,0.,4.8,0.,4.8,1.,4.8
1979-03-10 18:06:59.830 ,7,0,0.,4.8,0.,4.8,0.,4.8,0.,4.8
1979-03-10 18:07:04.630 ,7,0,0.,4.8,1.,4.8,0.,4.8,0.,4.8
1979-03-10 18:07:09.430 ,6,0,0.,4.8,1.,4.8,0.,4.8,0.,4.8
1979-03-10 18:07:14.230 ,6,0,0.,4.8,1.,4.8,1.,4.8,0.,4.8
1979-03-10 18:07:19.030 ,6,0,0.,4.8,0.,4.8,0.,4.8,0.,4.8
1979-03-10 18:07:23.830 ,6,0,0.,4.8,0.,4.8,1.,4.8,0.,4.8
1979-03-10 18:07:28.630 ,6,0,0.,4.8,0.,4.8,1.,4.8,0.,4.8
1979-03-10 18:07:33.430 ,5,0,0.,4.8,1.,4.8,0.,4.8,0.,4.8
1979-03-10 18:07:38.230 ,5,0,0.,4.8,2.,4.8,0.,4.8,0.,4.8
1979-03-10 18:07:43.030 ,5,0,0.,4.8,2.,4.8,0.,4.8,1.,4.8
1979-03-10 18:07:47.830 ,5,0,0.,4.8,1.,4.8,0.,4.8,0.,4.8
1979-03-10 18:07:52.630 ,5,0,0.,4.8,1.,4.8,2.,4.8,0.,4.8
1979-03-10 18:07:57.430 ,4,0,0.,4.8,1.,4.8,0.,4.8,0.,4.8
1979-03-10 18:08:02.230 ,4,0,0.,4.8,1.,4.8,0.,4.8,0.,4.8
1979-03-10 18:08:07.030 ,4,0,0.,4.8,1.,4.8,0.,4.8,0.,4.8
1979-03-10 18:08:11.830 ,4,0,0.,4.8,1.,4.8,0.,4.8,0.,4.8
1979-03-10 18:08:16.630 ,4,0,0.,4.8,1.,4.8,0.,4.8,0.,4.8
1979-03-10 18:08:21.430 ,3,0,0.,4.8,3.,4.8,0.,4.8,0.,4.8
1979-03-10 18:08:26.230 ,3,0,0.,4.8,1.,4.8,0.,4.8,0.,4.8
1979-03-10 18:08:31.030 ,3,0,0.,4.8,1.,4.8,0.,4.8,0.,4.8
1979-03-10 18:08:35.830 ,3,0,0.,4.8,2.,4.8,0.,4.8,0.,4.8
1979-03-10 18:08:40.630 ,3,0,0.,4.8,1.,4.8,0.,4.8,0.,4.8
1979-03-10 18:08:45.430 ,2,0,0.,4.8,1.,4.8,1.,4.8,0.,4.8
1979-03-10 18:08:50.230 ,2,0,0.,4.8,1.,4.8,0.,4.8,0.,4.8
1979-03-10 18:08:55.030 ,2,0,0.,4.8,1.,4.8,0.,4.8,0.,4.8
1979-03-10 18:08:59.830 ,2,0,0.,4.8,1.,4.8,0.,4.8,0.,4.8
1979-03-10 18:09:04.630 ,2,0,0.,4.8,1.,4.8,0.,4.8,0.,4.8
1979-03-10 18:09:09.430 ,1,0,0.,4.8,1.,4.8,0.,4.8,0.,4.8
1979-03-10 18:09:14.230 ,1,0,0.,4.8,1.,4.8,1.,4.8,0.,4.8
1979-03-10 18:09:19.030 ,1,0,0.,4.8,4.,4.8,0.,4.8,0.,4.8
1979-03-10 18:09:23.830 ,1,0,0.,4.8,0.,4.8,0.,4.8,0.,4.8
1979-03-10 18:09:28.630 ,1,0,0.,4.8,1.,4.8,0.,4.8,0.,4.8
1979-03-10 18:09:33.430 ,0,0,0.,4.8,0.,4.8,0.,4.8,0.,4.8
1979-03-10 18:09:38.230 ,0,0,0.,4.8,0.,4.8,0.,4.8,0.,4.8
1979-03-10 18:09:43.030 ,0,0,0.,4.8,0.,4.8,1.,4.8,0.,4.8
1979-03-10 18:09:47.830 ,0,0,0.,4.8,0.,4.8,1.,4.8,1.,4.8
1979-03-10 18:09:52.630 ,0,0,0.,4.8,1.,4.8,1.,4.8,0.,4.8
1979-03-10 18:09:57.430 ,0,0,0.,4.8,0.,4.8,0.,4.8,0.,4.8
1979-03-10 18:10:02.230 ,0,0,0.,4.8,0.,4.8,0.,4.8,0.,4.8
1979-03-10 18:10:07.030 ,0,0,0.,4.8,2.,4.8,0.,4.8,0.,4.8
1979-03-10 18:10:11.830 ,0,0,0.,4.8,1.,4.8,0.,4.8,0.,4.8
1979-03-10 18:10:16.630 ,0,0,0.,4.8,0.,4.8,0.,4.8,0.,4.8
1979-03-10 18:10:21.430 ,1,0,0.,4.8,1.,4.8,1.,4.8,0.,4.8
1979-03-10 18:10:26.230 ,1,0,0.,4.8,1.,4.8,0.,4.8,0.,4.8
1979-03-10 18:10:31.030 ,1,0,0.,4.8,2.,4.8,0.,4.8,1.,4.8
1979-03-10 18:10:35.830 ,1,0,0.,4.8,1.,4.8,0.,4.8,0.,4.8
1979-03-10 18:10:40.630 ,1,0,0.,4.8,0.,4.8,0.,4.8,0.,4.8
1979-03-10 18:10:45.430 ,2,0,0.,4.8,2.,4.8,0.,4.8,0.,4.8
1979-03-10 18:10:50.230 ,2,0,0.,4.8,2.,4.8,1.,4.8,0.,4.8
1979-03-10 18:10:55.030 ,2,0,0.,4.8,1.,4.8,2.,4.8,0.,4.8
1979-03-10 18:10:59.830 ,2,0,0.,4.8,1.,4.8,0.,4.8,0.,4.8
1979-03-10 18:11:04.630 ,2,0,0.,4.8,1.,4.8,0.,4.8,1.,4.8
1979-03-10 18:11:09.430 ,3,0,0.,4.8,2.,4.8,0.,4.8,0.,4.8
1979-03-10 18:11:14.230 ,3,0,0.,4.8,1.,4.8,0.,4.8,0.,4.8
1979-03-10 18:11:19.030 ,3,0,0.,4.8,0.,4.8,1.,4.8,0.,4.8
1979-03-10 18:11:23.830 ,3,0,0.,4.8,1.,4.8,0.,4.8,0.,4.8
1979-03-10 18:11:28.630 ,3,0,0.,4.8,2.,4.8,0.,4.8,0.,4.8
1979-03-10 18:11:33.430 ,4,0,0.,4.8,0.,4.8,0.,4.8,0.,4.8
1979-03-10 18:11:38.230 ,4,0,0.,4.8,0.,4.8,1.,4.8,0.,4.8
1979-03-10 18:11:43.030 ,4,0,0.,4.8,1.,4.8,0.,4.8,0.,4.8
1979-03-10 18:11:47.830 ,4,0,0.,4.8,1.,4.8,0.,4.8,0.,4.8
1979-03-10 18:11:52.630 ,4,0,0.,4.8,2.,4.8,0.,4.8,0.,4.8
1979-03-10 18:11:57.430 ,5,0,0.,4.8,0.,4.8,1.,4.8,0.,4.8
1979-03-10 18:12:02.230 ,5,0,0.,4.8,3.,4.8,0.,4.8,0.,4.8
1979-03-10 18:12:07.030 ,5,0,0.,4.8,1.,4.8,1.,4.8,0.,4.8
1979-03-10 18:12:11.830 ,5,0,0.,4.8,1.,4.8,0.,4.8,0.,4.8
1979-03-10 18:12:16.630 ,5,0,0.,4.8,0.,4.8,1.,4.8,0.,4.8
1979-03-10 18:12:21.430 ,6,0,0.,4.8,1.,4.8,0.,4.8,0.,4.8
1979-03-10 18:12:26.230 ,6,0,0.,4.8,2.,4.8,0.,4.8,0.,4.8
1979-03-10 18:12:31.030 ,6,0,0.,4.8,3.,4.8,0.,4.8,0.,4.8
1979-03-10 18:12:35.830 ,6,0,0.,4.8,1.,4.8,1.,4.8,0.,4.8
1979-03-10 18:12:40.630 ,6,0,0.,4.8,0.,4.8,0.,4.8,1.,4.8
1979-03-10 18:12:45.430 ,7,0,0.,4.8,1.,4.8,1.,4.8,0.,4.8
1979-03-10 18:12:50.230 ,7,0,0.,4.8,1.,4.8,0.,4.8,0.,4.8
1979-03-10 18:12:55.030 ,7,0,0.,4.8,1.,4.8,0.,4.8,0.,4.8
1979-03-10 18:12:59.830 ,7,0,0.,4.8,2.,4.8,0.,4.8,1.,4.8
1979-03-10 18:13:04.630 ,7,0,0.,4.8,0.,4.8,0.,4.8,0.,4.8
1979-03-10 18:13:09.430 ,7,0,0.,4.8,0.,4.8,1.,4.8,1.,4.8
1979-03-10 18:13:14.230 ,7,0,0.,4.8,1.,4.8,0.,4.8,0.,4.8
1979-03-10 18:13:19.030 ,7,0,0.,4.8,1.,4.8,1.,4.8,0.,4.8
1979-03-10 18:13:23.830 ,7,0,0.,4.8,1.,4.8,0.,4.8,0.,4.8
1979-03-10 18:13:28.630 ,7,0,0.,4.8,0.,4.8,0.,4.8,0.,4.8
1979-03-10 18:13:33.430 ,6,0,0.,4.8,0.,4.8,0.,4.8,0.,4.8
1979-03-10 18:13:38.230 ,6,0,0.,4.8,0.,4.8,1.,4.8,0.,4.8
1979-03-10 18:13:43.030 ,6,0,0.,4.8,1.,4.8,0.,4.8,1.,4.8
1979-03-10 18:13:47.830 ,6,0,0.,4.8,0.,4.8,1.,4.8,0.,4.8
1979-03-10 18:13:52.630 ,6,0,0.,4.8,1.,4.8,0.,4.8,0.,4.8
1979-03-10 18:13:57.430 ,5,0,0.,4.8,1.,4.8,0.,4.8,0.,4.8
1979-03-10 18:14:02.230 ,5,0,0.,4.8,1.,4.8,0.,4.8,0.,4.8
1979-03-10 18:14:07.030 ,5,0,0.,4.8,1.,4.8,0.,4.8,0.,4.8
1979-03-10 18:14:11.830 ,5,0,0.,4.8,2.,4.8,0.,4.8,0.,4.8
1979-03-10 18:14:16.630 ,5,0,0.,4.8,2.,4.8,0.,4.8,0.,4.8
1979-03-10 18:14:21.430 ,4,0,0.,4.8,2.,4.8,0.,4.8,0.,4.8
1979-03-10 18:14:26.230 ,4,0,0.,4.8,1.,4.8,0.,4.8,0.,4.8
1979-03-10 18:14:31.030 ,4,0,0.,4.8,1.,4.8,0.,4.8,0.,4.8
1979-03-10 18:14:35.830 ,4,0,0.,4.8,0.,4.8,0.,4.8,1.,4.8
1979-03-10 18:14:40.630 ,4,0,0.,4.8,0.,4.8,0.,4.8,0.,4.8
1979-03-10 18:14:45.430 ,3,0,0.,4.8,1.,4.8,0.,4.8,0.,4.8
1979-03-10 18:14:50.230 ,3,0,0.,4.8,2.,4.8,0.,4.8,2.,4.8
1979-03-10 18:14:55.030 ,3,0,0.,4.8,2.,4.8,0.,4.8,2.,4.8
1979-03-10 18:14:59.830 ,3,0,0.,4.8,1.,4.8,1.,4.8,0.,4.8
1979-03-10 18:15:04.630 ,3,0,0.,4.8,1.,4.8,0.,4.8,0.,4.8
1979-03-10 18:15:09.430 ,2,0,0.,4.8,2.,4.8,0.,4.8,0.,4.8
1979-03-10 18:15:14.230 ,2,0,0.,4.8,2.,4.8,0.,4.8,0.,4.8
1979-03-10 18:15:19.030 ,2,0,0.,4.8,1.,4.8,1.,4.8,1.,4.8
1979-03-10 18:15:23.830 ,2,0,0.,4.8,2.,4.8,0.,4.8,0.,4.8
1979-03-10 18:15:28.630 ,2,0,0.,4.8,1.,4.8,0.,4.8,0.,4.8
1979-03-10 18:15:33.430 ,1,0,0.,4.8,1.,4.8,1.,4.8,0.,4.8
1979-03-10 18:15:38.230 ,1,0,0.,4.8,0.,4.8,0.,4.8,0.,4.8
1979-03-10 18:15:43.030 ,1,0,0.,4.8,1.,4.8,0.,4.8,0.,4.8
1979-03-10 18:15:47.830 ,1,0,0.,4.8,1.,4.8,0.,4.8,0.,4.8
1979-03-10 18:15:52.630 ,1,0,0.,4.8,1.,4.8,0.,4.8,0.,4.8
1979-03-10 18:15:57.430 ,0,0,0.,4.8,0.,4.8,1.,4.8,0.,4.8
1979-03-10 18:16:02.230 ,0,0,0.,4.8,1.,4.8,0.,4.8,1.,4.8
1979-03-10 18:16:07.030 ,0,0,0.,4.8,2.,4.8,0.,4.8,0.,4.8
1979-03-10 18:16:11.830 ,0,0,0.,4.8,1.,4.8,0.,4.8,1.,4.8
1979-03-10 18:16:16.630 ,0,0,0.,4.8,3.,4.8,0.,4.8,0.,4.8
1979-03-10 18:16:21.430 ,0,0,0.,4.8,0.,4.8,0.,4.8,0.,4.8
1979-03-10 18:16:26.230 ,0,0,0.,4.8,1.,4.8,1.,4.8,1.,4.8
1979-03-10 18:16:31.030 ,0,0,0.,4.8,0.,4.8,0.,4.8,0.,4.8
1979-03-10 18:16:35.830 ,0,0,0.,4.8,1.,4.8,1.,4.8,0.,4.8
1979-03-10 18:16:40.630 ,0,0,0.,4.8,2.,4.8,0.,4.8,0.,4.8
1979-03-10 18:16:45.430 ,1,0,0.,4.8,1.,4.8,1.,4.8,1.,4.8
1979-03-10 18:16:50.230 ,1,0,0.,4.8,3.,4.8,0.,4.8,1.,4.8
1979-03-10 18:16:55.030 ,1,0,0.,4.8,1.,4.8,1.,4.8,1.,4.8
1979-03-10 18:16:59.830 ,1,0,0.,4.8,1.,4.8,0.,4.8,0.,4.8
1979-03-10 18:17:04.630 ,1,0,0.,4.8,0.,4.8,0.,4.8,0.,4.8
1979-03-10 18:17:09.430 ,2,0,0.,4.8,0.,4.8,0.,4.8,0.,4.8
1979-03-10 18:17:14.230 ,2,0,0.,4.8,0.,4.8,0.,4.8,2.,4.8
1979-03-10 18:17:19.030 ,2,0,0.,4.8,2.,4.8,0.,4.8,1.,4.8
1979-03-10 18:17:23.830 ,2,0,0.,4.8,1.,4.8,0.,4.8,0.,4.8
1979-03-10 18:17:28.630 ,2,0,0.,4.8,1.,4.8,1.,4.8,0.,4.8
1979-03-10 18:17:33.430 ,3,0,0.,4.8,2.,4.8,0.,4.8,0.,4.8
1979-03-10 18:17:38.230 ,3,0,0.,4.8,2.,4.8,0.,4.8,0.,4.8
1979-03-10 18:17:43.030 ,3,0,0.,4.8,2.,4.8,1.,4.8,2.,4.8
1979-03-10 18:17:47.830 ,3,0,0.,4.8,1.,4.8,1.,4.8,0.,4.8
1979-03-10 18:17:52.630 ,3,0,0.,4.8,0.,4.8,0.,4.8,0.,4.8
1979-03-10 18:17:57.430 ,4,0,0.,4.8,1.,4.8,0.,4.8,1.,4.8
1979-03-10 18:18:02.230 ,4,0,0.,4.8,0.,4.8,0.,4.8,1.,4.8
1979-03-10 18:18:07.030 ,4,0,0.,4.8,2.,4.8,0.,4.8,0.,4.8
1979-03-10 18:18:11.830 ,4,0,0.,4.8,1.,4.8,0.,4.8,0.,4.8
1979-03-10 18:18:16.630 ,4,0,0.,4.8,2.,4.8,1.,4.8,0.,4.8
1979-03-10 18:18:21.430 ,5,0,0.,4.8,2.,4.8,0.,4.8,0.,4.8
1979-03-10 18:18:26.230 ,5,0,0.,4.8,0.,4.8,0.,4.8,0.,4.8
1979-03-10 18:18:31.030 ,5,0,0.,4.8,1.,4.8,1.,4.8,0.,4.8
1979-03-10 18:18:35.830 ,5,0,0.,4.8,1.,4.8,0.,4.8,0.,4.8
1979-03-10 18:18:40.630 ,5,0,0.,4.8,0.,4.8,0.,4.8,0.,4.8
1979-03-10 18:18:45.430 ,6,0,0.,4.8,2.,4.8,0.,4.8,1.,4.8
1979-03-10 18:18:50.230 ,6,0,0.,4.8,0.,4.8,0.,4.8,1.,4.8
1979-03-10 18:18:55.030 ,6,0,0.,4.8,0.,4.8,0.,4.8,1.,4.8
1979-03-10 18:18:59.830 ,6,0,0.,4.8,2.,4.8,1.,4.8,0.,4.8
1979-03-10 18:19:04.630 ,6,0,0.,4.8,0.,4.8,0.,4.8,1.,4.8
1979-03-10 18:19:09.430 ,7,0,0.,4.8,0.,4.8,1.,4.8,0.,4.8
1979-03-10 18:19:14.230 ,7,0,0.,4.8,0.,4.8,0.,4.8,0.,4.8
1979-03-10 18:19:19.030 ,7,0,0.,4.8,0.,4.8,0.,4.8,0.,4.8
1979-03-10 18:19:23.830 ,7,0,0.,4.8,1.,4.8,1.,4.8,1.,4.8
1979-03-10 18:19:28.630 ,7,0,0.,4.8,0.,4.8,4.,4.8,0.,4.8
1979-03-10 18:19:33.430 ,7,0,0.,4.8,0.,4.8,0.,4.8,0.,4.8
1979-03-10 18:19:38.230 ,7,0,0.,4.8,0.,4.8,1.,4.8,0.,4.8
1979-03-10 18:19:43.030 ,7,0,0.,4.8,3.,4.8,0.,4.8,1.,4.8
1979-03-10 18:19:47.830 ,7,0,0.,4.8,0.,4.8,2.,4.8,0.,4.8
1979-03-10 18:19:52.630 ,7,0,0.,4.8,0.,4.8,1.,4.8,0.,4.8
1979-03-10 18:19:57.430 ,6,0,0.,4.8,1.,4.8,2.,4.8,0.,4.8
1979-03-10 18:20:02.230 ,6,0,0.,4.8,1.,4.8,0.,4.8,0.,4.8
1979-03-10 18:20:07.030 ,6,0,0.,4.8,0.,4.8,0.,4.8,1.,4.8
1979-03-10 18:20:11.830 ,6,0,0.,4.8,3.,4.8,0.,4.8,0.,4.8
1979-03-10 18:20:16.630 ,6,0,0.,4.8,1.,4.8,0.,4.8,1.,4.8
1979-03-10 18:20:21.430 ,5,0,0.,4.8,0.,4.8,1.,4.8,0.,4.8
1979-03-10 18:20:26.230 ,5,0,0.,4.8,1.,4.8,0.,4.8,0.,4.8
1979-03-10 18:20:31.030 ,5,0,0.,4.8,0.,4.8,0.,4.8,0.,4.8
1979-03-10 18:20:35.830 ,5,0,0.,4.8,1.,4.8,0.,4.8,0.,4.8
1979-03-10 18:20:40.630 ,5,0,0.,4.8,1.,4.8,0.,4.8,1.,4.8
1979-03-10 18:20:45.430 ,4,0,0.,4.8,1.,4.8,1.,4.8,0.,4.8
1979-03-10 18:20:50.230 ,4,0,0.,4.8,1.,4.8,0.,4.8,0.,4.8
1979-03-10 18:20:55.030 ,4,0,0.,4.8,1.,4.8,0.,4.8,1.,4.8
1979-03-10 18:20:59.830 ,4,0,0.,4.8,1.,4.8,0.,4.8,0.,4.8
1979-03-10 18:21:04.630 ,4,0,0.,4.8,2.,4.8,0.,4.8,0.,4.8
1979-03-10 18:21:09.430 ,3,0,0.,4.8,1.,4.8,1.,4.8,0.,4.8
1979-03-10 18:21:14.230 ,3,0,0.,4.8,1.,4.8,0.,4.8,0.,4.8
1979-03-10 18:21:19.030 ,3,0,0.,4.8,0.,4.8,0.,4.8,0.,4.8
1979-03-10 18:21:23.830 ,3,0,0.,4.8,2.,4.8,0.,4.8,3.,4.8
1979-03-10 18:21:28.630 ,3,0,0.,4.8,1.,4.8,2.,4.8,0.,4.8
1979-03-10 18:21:33.430 ,2,0,0.,4.8,1.,4.8,2.,4.8,0.,4.8
1979-03-10 18:21:38.230 ,2,0,0.,4.8,1.,4.8,0.,4.8,0.,4.8
1979-03-10 18:21:43.030 ,2,0,0.,4.8,2.,4.8,0.,4.8,0.,4.8
1979-03-10 18:21:47.830 ,2,0,0.,4.8,1.,4.8,0.,4.8,0.,4.8
1979-03-10 18:21:52.630 ,2,0,0.,4.8,1.,4.8,0.,4.8,1.,4.8
1979-03-10 18:21:57.430 ,1,0,0.,4.8,1.,4.8,0.,4.8,0.,4.8
1979-03-10 18:22:02.230 ,1,0,0.,4.8,0.,4.8,0.,4.8,0.,4.8
1979-03-10 18:22:07.030 ,1,0,0.,4.8,1.,4.8,0.,4.8,1.,4.8
1979-03-10 18:22:11.830 ,1,0,0.,4.8,2.,4.8,0.,4.8,0.,4.8
1979-03-10 18:22:16.630 ,1,0,0.,4.8,3.,4.8,0.,4.8,0.,4.8
1979-03-10 18:22:21.430 ,0,0,0.,4.8,1.,4.8,0.,4.8,1.,4.8
1979-03-10 18:22:26.230 ,0,0,0.,4.8,0.,4.8,0.,4.8,0.,4.8
1979-03-10 18:22:31.030 ,0,0,0.,4.8,2.,4.8,0.,4.8,1.,4.8
1979-03-10 18:22:35.830 ,0,0,0.,4.8,1.,4.8,0.,4.8,0.,4.8
1979-03-10 18:22:40.630 ,0,0,0.,4.8,2.,4.8,0.,4.8,0.,4.8
1979-03-10 18:22:45.430 ,0,0,0.,4.8,0.,4.8,0.,4.8,0.,4.8
1979-03-10 18:22:50.230 ,0,0,0.,4.8,1.,4.8,1.,4.8,0.,4.8
1979-03-10 18:22:55.030 ,0,0,0.,4.8,0.,4.8,1.,4.8,0.,4.8
1979-03-10 18:22:59.830 ,0,0,0.,4.8,2.,4.8,0.,4.8,0.,4.8
1979-03-10 18:23:04.630 ,0,0,0.,4.8,1.,4.8,0.,4.8,0.,4.8
1979-03-10 18:23:09.430 ,1,0,0.,4.8,2.,4.8,0.,4.8,1.,4.8
1979-03-10 18:23:14.230 ,1,0,0.,4.8,1.,4.8,0.,4.8,0.,4.8
1979-03-10 18:23:19.030 ,1,0,0.,4.8,1.,4.8,1.,4.8,0.,4.8
1979-03-10 18:23:23.830 ,1,0,0.,4.8,0.,4.8,1.,4.8,1.,4.8
1979-03-10 18:23:28.630 ,1,0,0.,4.8,0.,4.8,2.,4.8,1.,4.8
1979-03-10 18:23:33.430 ,2,0,0.,4.8,1.,4.8,0.,4.8,0.,4.8
1979-03-10 18:23:38.230 ,2,0,0.,4.8,0.,4.8,0.,4.8,0.,4.8
1979-03-10 18:23:43.030 ,2,0,0.,4.8,2.,4.8,0.,4.8,0.,4.8
1979-03-10 18:23:47.830 ,2,0,0.,4.8,0.,4.8,0.,4.8,0.,4.8
1979-03-10 18:23:52.630 ,2,0,0.,4.8,2.,4.8,0.,4.8,0.,4.8
1979-03-10 18:23:57.430 ,3,0,0.,4.8,1.,4.8,0.,4.8,0.,4.8
1979-03-10 18:24:02.230 ,3,0,0.,4.8,1.,4.8,0.,4.8,0.,4.8
1979-03-10 18:24:07.030 ,3,0,0.,4.8,0.,4.8,2.,4.8,0.,4.8
1979-03-10 18:24:11.830 ,3,0,0.,4.8,2.,4.8,0.,4.8,0.,4.8
1979-03-10 18:24:16.630 ,3,0,0.,4.8,0.,4.8,0.,4.8,0.,4.8
1979-03-10 18:24:21.430 ,4,0,0.,4.8,1.,4.8,0.,4.8,0.,4.8
1979-03-10 18:24:26.230 ,4,0,0.,4.8,3.,4.8,0.,4.8,0.,4.8
1979-03-10 18:24:31.030 ,4,0,0.,4.8,1.,4.8,0.,4.8,0.,4.8
1979-03-10 18:24:35.830 ,4,0,0.,4.8,0.,4.8,0.,4.8,0.,4.8
1979-03-10 18:24:40.630 ,4,0,0.,4.8,0.,4.8,0.,4.8,0.,4.8
1979-03-10 18:24:45.430 ,5,0,0.,4.8,1.,4.8,0.,4.8,0.,4.8
1979-03-10 18:24:50.230 ,5,0,0.,4.8,1.,4.8,0.,4.8,0.,4.8
1979-03-10 18:24:55.030 ,5,0,0.,4.8,1.,4.8,0.,4.8,0.,4.8
1979-03-10 18:24:59.830 ,5,0,0.,4.8,2.,4.8,0.,4.8,0.,4.8
1979-03-10 18:25:04.630 ,5,0,0.,4.8,2.,4.8,0.,4.8,0.,4.8
1979-03-10 18:25:09.430 ,6,0,0.,4.8,0.,4.8,0.,4.8,1.,4.8
1979-03-10 18:25:14.230 ,6,0,0.,4.8,1.,4.8,0.,4.8,0.,4.8
1979-03-10 18:25:19.030 ,6,0,0.,4.8,1.,4.8,0.,4.8,0.,4.8
1979-03-10 18:25:23.830 ,6,0,0.,4.8,1.,4.8,0.,4.8,0.,4.8
1979-03-10 18:25:28.630 ,6,0,0.,4.8,0.,4.8,0.,4.8,0.,4.8
1979-03-10 18:25:33.430 ,7,0,0.,4.8,0.,4.8,0.,4.8,1.,4.8
1979-03-10 18:25:38.230 ,7,0,0.,4.8,3.,4.8,1.,4.8,0.,4.8
1979-03-10 18:25:43.030 ,7,0,0.,4.8,0.,4.8,1.,4.8,2.,4.8
1979-03-10 18:25:47.830 ,7,0,0.,4.8,0.,4.8,0.,4.8,0.,4.8
1979-03-10 18:25:52.630 ,7,0,0.,4.8,1.,4.8,1.,4.8,0.,4.8
1979-03-10 18:25:57.430 ,7,0,0.,4.8,0.,4.8,0.,4.8,0.,4.8
1979-03-10 18:26:02.230 ,7,0,0.,4.8,1.,4.8,0.,4.8,0.,4.8
1979-03-10 18:26:07.030 ,7,0,0.,4.8,2.,4.8,1.,4.8,0.,4.8
1979-03-10 18:26:11.830 ,7,0,0.,4.8,0.,4.8,0.,4.8,0.,4.8
1979-03-10 18:26:16.630 ,7,0,0.,4.8,1.,4.8,0.,4.8,0.,4.8
1979-03-10 18:26:21.430 ,6,0,0.,4.8,2.,4.8,0.,4.8,0.,4.8
1979-03-10 18:26:26.230 ,6,0,0.,4.8,1.,4.8,0.,4.8,1.,4.8
1979-03-10 18:26:31.030 ,6,0,0.,4.8,0.,4.8,0.,4.8,1.,4.8
1979-03-10 18:26:35.830 ,6,0,0.,4.8,1.,4.8,1.,4.8,0.,4.8
1979-03-10 18:26:40.630 ,6,0,0.,4.8,2.,4.8,0.,4.8,0.,4.8
1979-03-10 18:26:45.430 ,5,0,0.,4.8,4.,4.8,0.,4.8,0.,4.8
1979-03-10 18:26:50.230 ,5,0,,0,,0,,0,,0
1979-03-10 18:26:55.030 ,5,0,0.,4.8,0.,4.8,0.,4.8,0.,4.8
1979-03-10 18:26:59.830 ,5,0,0.,4.8,0.,4.8,0.,4.8,0.,4.8
1979-03-10 18:27:04.630 ,5,0,0.,4.8,0.,4.8,0.,4.8,0.,4.8
1979-03-10 18:27:09.430 ,4,0,0.,4.8,3.,4.8,1.,4.8,0.,4.8
1979-03-10 18:27:14.230 ,4,0,0.,4.8,1.,4.8,2.,4.8,0.,4.8
1979-03-10 18:27:19.030 ,4,0,0.,4.8,0.,4.8,0.,4.8,0.,4.8
1979-03-10 18:27:23.830 ,4,0,0.,4.8,1.,4.8,0.,4.8,1.,4.8
1979-03-10 18:27:28.630 ,4,0,0.,4.8,4.,4.8,1.,4.8,0.,4.8
1979-03-10 18:27:33.430 ,3,0,0.,4.8,2.,4.8,0.,4.8,0.,4.8
1979-03-10 18:27:38.230 ,3,0,0.,4.8,0.,4.8,1.,4.8,0.,4.8
1979-03-10 18:27:43.030 ,3,0,0.,4.8,1.,4.8,0.,4.8,0.,4.8
1979-03-10 18:27:47.830 ,3,0,0.,4.8,2.,4.8,0.,4.8,0.,4.8
1979-03-10 18:27:52.630 ,3,0,0.,4.8,1.,4.8,2.,4.8,0.,4.8
1979-03-10 18:27:57.430 ,2,0,0.,4.8,2.,4.8,0.,4.8,0.,4.8
1979-03-10 18:28:02.230 ,2,0,0.,4.8,1.,4.8,1.,4.8,0.,4.8
1979-03-10 18:28:07.030 ,2,0,0.,4.8,1.,4.8,0.,4.8,0.,4.8
1979-03-10 18:28:11.830 ,2,0,0.,4.8,1.,4.8,0.,4.8,0.,4.8
1979-03-10 18:28:16.630 ,2,0,0.,4.8,2.,4.8,1.,4.8,0.,4.8
1979-03-10 18:28:21.430 ,1,0,0.,4.8,2.,4.8,0.,4.8,0.,4.8
1979-03-10 18:28:26.230 ,1,0,0.,4.8,2.,4.8,1.,4.8,0.,4.8
1979-03-10 18:28:31.030 ,1,0,0.,4.8,1.,4.8,0.,4.8,0.,4.8
1979-03-10 18:28:35.830 ,1,0,0.,4.8,1.,4.8,0.,4.8,0.,4.8
1979-03-10 18:28:40.630 ,1,0,0.,4.8,3.,4.8,0.,4.8,0.,4.8
1979-03-10 18:28:45.430 ,0,0,0.,4.8,1.,4.8,0.,4.8,0.,4.8
1979-03-10 18:28:50.230 ,0,0,0.,4.8,1.,4.8,0.,4.8,1.,4.8
1979-03-10 18:28:55.030 ,0,0,0.,4.8,0.,4.8,0.,4.8,0.,4.8
1979-03-10 18:28:59.830 ,0,0,0.,4.8,0.,4.8,0.,4.8,0.,4.8
1979-03-10 18:29:04.630 ,0,0,0.,4.8,3.,4.8,0.,4.8,1.,4.8
1979-03-10 18:29:09.430 ,0,0,0.,4.8,1.,4.8,1.,4.8,1.,4.8
1979-03-10 18:29:14.230 ,0,0,0.,4.8,0.,4.8,0.,4.8,0.,4.8
1979-03-10 18:29:19.030 ,0,0,0.,4.8,0.,4.8,0.,4.8,0.,4.8
1979-03-10 18:29:23.830 ,0,0,0.,4.8,1.,4.8,0.,4.8,0.,4.8
1979-03-10 18:29:28.630 ,0,0,0.,4.8,1.,4.8,0.,4.8,0.,4.8
1979-03-10 18:29:33.430 ,1,0,0.,4.8,0.,4.8,0.,4.8,0.,4.8
1979-03-10 18:29:38.230 ,1,0,0.,4.8,1.,4.8,0.,4.8,0.,4.8
1979-03-10 18:29:43.030 ,1,0,0.,4.8,1.,4.8,0.,4.8,1.,4.8
1979-03-10 18:29:47.830 ,1,0,0.,4.8,1.,4.8,0.,4.8,0.,4.8
1979-03-10 18:29:52.630 ,1,0,0.,4.8,0.,4.8,0.,4.8,0.,4.8
1979-03-10 18:29:57.430 ,2,0,0.,4.8,2.,4.8,0.,4.8,0.,4.8
1979-03-10 18:30:02.230 ,2,0,0.,4.8,2.,4.8,1.,4.8,0.,4.8
1979-03-10 18:30:07.030 ,2,0,0.,4.8,2.,4.8,0.,4.8,0.,4.8
1979-03-10 18:30:11.830 ,2,0,0.,4.8,1.,4.8,0.,4.8,0.,4.8
1979-03-10 18:30:16.630 ,2,0,0.,4.8,3.,4.8,0.,4.8,0.,4.8
1979-03-10 18:30:45.430 ,4,0,0.,4.8,1.,4.8,0.,4.8,0.,4.8
1979-03-10 18:30:50.230 ,4,0,0.,4.8,0.,4.8,0.,4.8,0.,4.8
1979-03-10 18:30:55.030 ,4,0,0.,4.8,0.,4.8,0.,4.8,0.,4.8
1979-03-10 18:30:59.830 ,4,0,0.,4.8,3.,4.8,0.,4.8,0.,4.8
1979-03-10 18:31:04.630 ,4,0,0.,4.8,0.,4.8,0.,4.8,0.,4.8
1979-03-10 18:31:09.430 ,5,0,0.,4.8,3.,4.8,1.,4.8,0.,4.8
1979-03-10 18:31:14.230 ,5,0,0.,4.8,2.,4.8,0.,4.8,0.,4.8
1979-03-10 18:31:19.030 ,5,0,0.,4.8,1.,4.8,0.,4.8,1.,4.8
1979-03-10 18:31:23.830 ,5,0,0.,4.8,0.,4.8,0.,4.8,0.,4.8
1979-03-10 18:31:28.630 ,5,0,0.,4.8,0.,4.8,0.,4.8,0.,4.8
1979-03-10 18:31:33.430 ,6,0,0.,4.8,3.,4.8,0.,4.8,1.,4.8
1979-03-10 18:31:38.230 ,6,0,0.,4.8,2.,4.8,1.,4.8,0.,4.8
1979-03-10 18:31:43.030 ,6,0,0.,4.8,1.,4.8,0.,4.8,0.,4.8
1979-03-10 18:31:47.830 ,6,0,0.,4.8,2.,4.8,0.,4.8,0.,4.8
1979-03-10 18:31:52.630 ,6,0,0.,4.8,1.,4.8,0.,4.8,0.,4.8
1979-03-10 18:31:57.430 ,7,0,0.,4.8,2.,4.8,0.,4.8,0.,4.8
1979-03-10 18:32:02.230 ,7,0,0.,4.8,1.,4.8,0.,4.8,1.,4.8
1979-03-10 18:32:07.030 ,7,0,0.,4.8,1.,4.8,0.,4.8,1.,4.8
1979-03-10 18:32:11.830 ,7,0,0.,4.8,0.,4.8,0.,4.8,1.,4.8
1979-03-10 18:32:16.630 ,7,0,0.,4.8,2.,4.8,1.,4.8,0.,4.8
1979-03-10 18:32:21.430 ,7,0,0.,4.8,1.,4.8,0.,4.8,0.,4.8
1979-03-10 18:32:26.230 ,7,0,0.,4.8,0.,4.8,0.,4.8,0.,4.8
1979-03-10 18:32:31.030 ,7,0,0.,4.8,0.,4.8,0.,4.8,0.,4.8
1979-03-10 18:32:35.830 ,7,0,0.,4.8,1.,4.8,1.,4.8,0.,4.8
1979-03-10 18:32:40.630 ,7,0,0.,4.8,0.,4.8,1.,4.8,2.,4.8
1979-03-10 18:32:45.430 ,6,0,0.,4.8,0.,4.8,0.,4.8,0.,4.8
1979-03-10 18:32:50.230 ,6,0,0.,4.8,2.,4.8,1.,4.8,0.,4.8
1979-03-10 18:32:55.030 ,6,0,0.,4.8,0.,4.8,0.,4.8,0.,4.8
1979-03-10 18:32:59.830 ,6,0,0.,4.8,0.,4.8,0.,4.8,0.,4.8
1979-03-10 18:33:04.630 ,6,0,0.,4.8,0.,4.8,1.,4.8,0.,4.8
1979-03-10 18:33:09.430 ,5,0,,0,,0,,0,,0
1979-03-10 18:33:14.230 ,5,0,0.,4.8,0.,4.8,0.,4.8,0.,4.8
1979-03-10 18:33:19.030 ,5,0,0.,4.8,1.,4.8,0.,4.8,0.,4.8
1979-03-10 18:33:23.830 ,5,0,0.,4.8,2.,4.8,0.,4.8,0.,4.8
1979-03-10 18:33:28.630 ,5,0,0.,4.8,0.,4.8,0.,4.8,0.,4.8
1979-03-10 18:33:33.430 ,4,0,0.,4.8,3.,4.8,0.,4.8,0.,4.8
1979-03-10 18:33:38.230 ,4,0,0.,4.8,1.,4.8,0.,4.8,0.,4.8
1979-03-10 18:33:43.030 ,4,0,0.,4.8,1.,4.8,0.,4.8,0.,4.8